Date,TemperatureHighF,TemperatureAvgF,TemperatureLowF,DewpointHighF,DewpointAvgF,DewpointLowF,HumidityHigh,HumidityAvg,HumidityLow,PressureMaxIn,PressureMinIn,WindSpeedMaxMPH,WindSpeedAvgMPH,GustSpeedMaxMPH,PrecipitationSumIn
2013-1-9,52,52,51,42,41,41,71,68,66,29.76,29.75,11,7,12,0.00
2013-1-10,58,52,48,55,50,42,99,94,69,29.74,29.07,20,6,20,0.25
2013-1-11,72,58,47,52,46,43,94,68,41,29.44,29.25,16,7,24,0.00
2013-1-12,61,40,26,51,27,18,86,64,28,29.68,29.39,16,7,25,0.09
2013-1-13,34,25,17,18,12,7,74,59,43,29.96,29.57,13,4,19,0.01
2013-1-14,38,25,16,15,11,6,77,55,30,30.05,29.88,11,3,16,0.00
2013-1-15,36,26,19,18,12,2,78,58,25,29.90,29.75,10,3,13,0.01
2013-1-16,50,32,16,20,14,6,68,48,24,29.80,29.67,10,2,14,0.00
2013-1-17,57,41,27,33,26,16,82,58,32,30.06,29.78,12,2,18,0.00
2013-1-18,60,46,32,35,30,23,73,55,33,30.07,29.76,16,6,24,0.00
2013-1-19,68,52,41,38,35,32,73,55,29,29.79,29.66,14,5,20,0.02
2013-1-20,66,48,32,42,32,16,73,55,38,29.87,29.69,17,4,22,0.00
2013-1-21,44,32,24,17,12,7,63,47,24,29.99,29.85,14,4,18,0.00
2013-1-22,56,37,19,32,23,13,83,59,32,29.89,29.74,11,2,19,0.00
2013-1-23,66,46,25,46,35,20,92,69,43,29.83,29.69,8,2,13,0.00
2013-1-24,47,39,34,40,24,20,77,56,47,29.84,29.68,12,5,19,0.00
2013-1-25,52,39,29,32,27,23,78,65,43,29.83,29.69,8,2,12,0.00
2013-1-26,56,44,31,39,32,24,79,63,41,29.83,29.65,12,4,17,0.00
2013-1-27,61,54,46,59,52,36,99,91,68,29.68,29.45,17,7,27,0.00
2013-1-28,77,69,61,64,62,57,91,79,60,29.52,29.34,18,9,28,0.01
2013-1-29,71,58,41,64,54,39,99,88,73,29.34,29.02,19,6,32,0.89
2013-1-30,42,36,25,40,27,20,91,71,55,29.64,29.20,20,6,33,0.00
2013-1-31,54,34,23,30,20,6,84,60,22,30.03,29.59,17,4,28,0.00
2013-2-1,47,30,17,23,9,-2,69,44,21,30.03,29.73,13,2,15,0.00
2013-2-2,61,42,25,34,27,18,80,57,28,29.87,29.74,12,2,15,0.00
2013-2-3,61,49,37,31,25,15,71,42,21,29.90,29.51,11,2,16,0.00
2013-2-4,69,57,42,40,33,23,74,42,20,29.55,29.40,13,3,21,0.00
2013-2-5,71,50,30,43,33,25,97,60,20,29.62,29.50,4,0,8,0.00
2013-2-6,68,55,37,54,45,33,89,70,53,29.63,29.47,13,3,22,0.00
2013-2-7,55,47,42,49,42,37,93,83,67,29.74,29.50,14,1,17,0.08
2013-2-8,52,40,33,37,33,30,92,77,50,29.90,29.73,8,0,16,0.00
2013-2-9,46,42,39,45,37,33,99,86,74,29.74,29.32,11,2,18,0.05
2013-2-10,64,53,38,52,35,21,99,58,21,29.65,29.20,14,3,22,0.08
2013-2-11,56,42,29,29,24,18,85,52,24,29.80,29.64,5,0,14,0.00
2013-2-12,40,37,33,38,32,24,99,83,62,29.71,29.52,6,0,10,0.26
2013-2-13,58,42,34,39,34,26,98,77,40,29.64,29.53,8,1,11,0.06
2013-2-14,61,46,31,36,31,24,76,57,35,29.80,29.56,11,0,21,0.00
2013-2-15,46,36,28,36,18,6,81,52,20,29.98,29.80,9,1,17,0.00
2013-2-16,49,37,22,28,16,6,76,47,20,29.97,29.64,10,0,16,0.00
2013-2-17,71,54,37,36,29,23,69,43,21,29.65,29.34,18,3,33,0.00
2013-2-18,64,54,37,51,38,23,76,55,38,29.74,29.22,18,6,32,0.00
2013-2-19,55,40,24,27,22,16,82,52,24,29.92,29.74,4,0,11,0.00
2013-2-20,40,35,32,34,30,24,99,84,53,29.84,29.56,7,0,16,0.33
2013-2-21,36,33,26,35,31,18,99,94,73,29.56,29.24,11,1,25,0.24
2013-2-22,41,28,20,22,18,15,81,65,44,29.73,29.55,9,0,17,0.05
2013-2-23,51,33,18,25,20,14,89,61,31,29.71,29.53,2,0,6,0.00
2013-2-24,65,46,29,39,32,22,77,58,32,29.55,29.33,16,2,21,0.00
2013-2-25,48,40,33,40,36,32,99,88,64,29.40,29.06,16,2,24,1.03
2013-2-26,45,37,29,36,32,26,99,83,67,29.51,29.09,15,2,120,0.20
2013-2-27,50,37,28,33,28,24,95,72,45,29.76,29.49,17,2,24,0.00
2013-2-28,48,38,30,31,28,25,85,68,49,29.81,29.73,10,1,15,0.00
2013-3-1,43,36,31,28,23,15,68,60,51,29.91,29.78,11,1,20,0.00
2013-3-2,50,35,21,25,18,12,80,52,26,29.97,29.76,6,0,14,0.00
2013-3-3,66,49,34,35,26,17,55,41,25,29.76,29.25,14,3,21,0.00
2013-3-4,77,60,45,43,39,33,75,49,24,29.56,29.15,15,2,27,0.00
2013-3-5,51,41,34,38,24,16,94,53,27,29.95,29.57,17,4,30,0.07
2013-3-6,56,39,24,26,19,12,76,48,20,30.01,29.77,8,0,19,0.00
2013-3-7,69,53,36,32,26,20,66,40,16,29.81,29.63,15,4,24,0.00
2013-3-8,59,54,46,46,38,31,75,57,45,29.75,29.54,12,2,21,0.00
2013-3-9,63,59,53,60,51,37,99,77,44,29.54,29.23,15,2,28,0.38
2013-3-10,58,42,33,54,37,24,98,83,67,29.62,29.19,17,3,24,0.00
2013-3-11,54,39,26,26,20,10,86,53,19,29.62,29.54,10,1,17,0.00
2013-3-12,62,46,32,41,29,20,75,52,23,29.92,29.60,8,0,16,0.00
2013-3-13,59,44,28,28,22,14,80,45,21,30.05,29.90,4,0,8,0.00
2013-3-14,81,61,44,44,34,22,53,38,22,29.91,29.66,13,1,20,0.00
2013-3-15,85,68,52,50,45,40,77,47,23,29.69,29.35,13,2,21,0.00
2013-3-16,77,64,48,53,46,40,73,54,40,29.44,29.30,13,2,22,0.00
2013-3-17,48,43,40,43,41,38,99,91,73,29.44,29.28,13,1,21,0.00
2013-3-18,63,48,40,43,34,16,99,66,20,29.63,29.28,8,1,16,0.00
2013-3-19,61,48,34,33,28,22,75,48,26,29.84,29.59,8,0,16,0.00
2013-3-20,57,44,33,35,25,15,89,54,21,29.96,29.66,10,1,17,0.00
2013-3-21,46,40,37,37,29,21,87,66,45,29.67,29.29,12,1,18,0.01
2013-3-22,49,42,37,41,38,35,99,88,73,29.50,29.35,7,0,10,0.04
2013-3-23,43,40,38,42,40,37,99,97,86,29.50,29.31,10,0,14,0.07
2013-3-24,43,35,29,37,26,17,99,72,44,29.77,29.36,17,4,30,0.02
2013-3-25,44,33,23,24,19,13,76,56,34,29.97,29.76,13,2,27,0.00
2013-3-26,57,37,19,25,18,13,87,52,21,30.02,29.85,4,0,10,0.00
2013-3-27,69,52,34,35,27,21,64,40,22,29.85,29.64,17,2,30,0.00
2013-3-28,75,61,48,53,43,27,66,52,34,29.75,29.63,10,1,20,0.00
2013-3-29,75,64,56,61,57,52,99,79,61,29.71,29.63,8,0,17,0.02
2013-3-30,80,65,55,61,56,51,97,74,46,29.66,29.42,12,1,21,0.06
2013-3-31,72,61,50,59,47,39,99,64,32,29.60,29.45,15,1,28,0.00
2013-4-1,64,51,42,45,40,34,87,69,49,29.74,29.56,13,1,21,0.01
2013-4-2,45,40,38,41,38,31,99,91,61,29.80,29.69,12,1,20,0.86
2013-4-3,43,40,38,41,38,34,99,92,73,29.80,29.72,5,0,15,0.83
2013-4-4,61,48,38,42,37,29,99,73,34,29.79,29.66,7,0,13,0.26
2013-4-5,71,55,35,46,41,34,99,66,32,29.79,29.51,11,1,17,0.00
2013-4-6,79,66,58,54,50,46,71,57,37,29.52,29.37,17,3,24,0.00
2013-4-7,67,63,58,60,58,53,93,83,73,29.47,29.30,12,1,24,0.00
2013-4-8,80,69,63,64,61,58,94,77,57,29.34,29.22,15,3,24,0.00
2013-4-9,81,71,42,65,61,39,90,71,54,29.43,29.22,17,4,30,0.00
2013-4-10,43,38,35,42,36,31,99,92,81,29.56,29.38,14,2,24,0.33
2013-4-11,58,42,30,36,30,27,90,65,38,29.55,29.35,11,1,18,0.00
2013-4-12,67,49,35,41,33,27,88,59,26,29.61,29.41,10,0,15,0.00
2013-4-13,76,60,46,52,45,37,95,60,32,29.64,29.32,13,2,21,0.19
2013-4-14,82,70,59,59,51,46,74,52,37,29.32,29.08,21,4,32,0.00
2013-4-15,75,63,53,58,46,34,76,55,36,29.46,29.28,12,2,22,0.01
2013-4-16,59,53,50,52,48,43,97,84,73,29.56,29.41,6,1,15,0.00
2013-4-17,81,68,50,71,62,49,99,82,61,29.51,29.14,16,2,27,0.83
2013-4-18,46,43,40,43,34,26,98,74,55,29.69,29.31,14,4,26,0.71
2013-4-19,64,48,34,35,28,19,73,50,24,29.75,29.62,11,1,19,0.00
2013-4-20,73,57,40,40,34,20,91,49,15,29.73,29.58,19,1,25,0.00
2013-4-21,72,61,52,46,42,39,80,52,32,29.79,29.65,11,2,21,0.04
2013-4-22,78,64,51,55,48,43,78,57,41,29.72,29.42,14,2,25,0.00
2013-4-23,68,44,36,58,42,33,99,93,55,29.80,29.40,11,2,27,0.22
2013-4-24,61,46,32,37,30,21,92,59,25,29.90,29.78,8,0,16,0.00
2013-4-25,73,56,38,40,32,22,82,46,16,29.93,29.75,8,0,13,0.00
2013-4-26,63,56,53,53,48,38,98,77,40,29.76,29.55,11,1,20,0.30
2013-4-27,59,55,52,54,53,51,98,92,80,29.67,29.56,7,0,20,0.07
2013-4-28,55,52,47,54,50,47,99,95,89,29.63,29.59,0,0,0,0.00
2013-4-29,89,77,64,63,58,48,90,55,27,29.44,29.31,13,2,23,0.00
2013-4-30,86,75,65,62,56,51,77,54,33,29.41,29.32,14,2,24,0.00
2013-5-1,85,73,56,67,62,48,91,70,50,29.68,29.40,10,1,17,0.00
2013-5-2,55,43,37,48,40,36,99,90,77,29.96,29.68,14,2,24,0.24
2013-5-3,61,48,35,38,32,23,97,60,25,29.93,29.56,12,2,27,0.00
2013-5-4,48,44,40,46,41,35,99,91,66,29.64,29.49,9,0,15,0.08
2013-5-5,60,51,44,52,48,43,99,88,73,29.72,29.63,5,0,14,0.01
2013-5-6,73,56,44,57,51,43,99,85,51,29.71,29.59,2,0,8,0.00
2013-5-7,80,64,48,58,52,46,99,70,32,29.68,29.54,3,0,7,0.00
2013-5-8,85,72,62,64,56,46,97,58,31,29.59,29.44,12,1,22,0.21
2013-5-9,74,65,58,66,62,56,99,93,71,29.56,29.44,20,0,31,0.59
2013-5-10,75,64,54,63,58,53,99,83,56,29.67,29.51,7,0,14,0.04
2013-5-11,80,63,48,63,50,35,99,68,28,29.82,29.66,11,0,19,0.01
2013-5-12,76,60,42,47,42,30,97,56,25,29.87,29.70,3,0,7,0.00
2013-5-13,90,73,58,62,52,43,65,49,33,29.71,29.60,7,0,18,0.00
2013-5-14,90,77,64,61,54,48,59,45,31,29.63,29.51,11,1,20,0.00
2013-5-15,74,71,65,70,64,54,99,81,50,29.57,29.42,8,1,17,0.52
2013-5-16,80,67,49,58,52,46,99,62,33,30.21,30.03,3,0,8,0.00
2013-5-17,84,72,58,64,57,48,99,64,31,30.13,29.97,9,1,15,0.78
2013-5-18,89,75,59,76,68,58,99,80,63,30.08,29.86,9,1,22,0.02
2013-5-19,83,74,65,73,68,61,99,83,64,30.03,29.67,19,2,29,0.45
2013-5-20,86,76,70,77,70,65,97,85,67,29.91,29.76,11,1,27,0.04
2013-5-21,70,62,58,66,60,55,99,91,71,30.06,29.78,9,0,19,0.41
2013-5-22,82,67,54,64,57,53,99,76,43,30.06,29.92,2,0,8,0.01
2013-5-23,65,61,57,63,59,56,99,93,81,30.26,30.05,4,0,11,0.27
2013-5-24,81,69,57,70,63,57,99,83,66,30.32,30.22,6,0,11,0.00
2013-5-25,85,74,64,70,65,59,96,76,57,30.30,30.13,11,1,21,0.00
2013-5-26,85,75,68,72,68,62,96,79,64,30.20,30.06,12,1,22,0.00
2013-5-27,83,77,71,71,69,66,93,77,64,30.08,29.86,17,3,28,0.00
2013-5-28,82,77,74,70,68,66,86,74,62,29.95,29.85,13,2,24,0.00
2013-5-29,79,74,64,71,68,61,99,82,74,29.96,29.79,15,2,24,0.26
2013-5-30,85,73,64,75,70,63,99,89,70,29.91,29.78,15,2,30,0.50
2013-5-31,89,81,75,76,73,69,91,77,63,29.91,29.75,19,2,30,0.01
2013-6-1,82,71,60,70,61,54,99,75,45,30.15,29.80,6,0,14,0.26
2013-6-2,76,64,55,60,56,53,99,78,55,30.23,30.13,4,0,10,0.00
2013-6-3,83,68,53,66,60,52,99,78,52,30.17,29.97,2,0,9,0.00
2013-6-4,86,74,66,72,67,63,99,81,52,30.12,29.88,20,1,27,0.43
2013-6-5,83,73,65,75,68,63,99,84,62,30.14,29.99,9,0,23,1.03
2013-6-7,82,71,65,62,59,55,85,68,42,30.08,30.04,0,0,0,0.08
2013-6-8,83,73,60,65,60,56,91,65,45,30.07,29.92,8,0,20,0.00
2013-6-9,91,78,66,67,62,55,88,60,33,30.05,29.91,8,0,21,0.01
2013-6-10,95,82,69,72,67,60,88,63,43,30.07,29.99,4,0,11,0.00
2013-6-11,94,84,72,73,70,66,83,64,44,30.11,30.02,8,1,18,0.00
2013-6-12,93,84,76,74,71,68,88,67,47,30.11,30.02,8,1,17,0.00
2013-6-13,98,84,72,75,72,69,97,70,45,30.17,30.06,1,0,4,0.00
2013-6-14,96,84,69,77,73,69,99,70,47,30.14,30.03,2,0,9,0.00
2013-6-15,88,78,72,78,73,69,97,85,71,30.15,30.06,8,0,18,0.01
2013-6-16,98,79,70,78,71,66,99,79,47,30.14,30.00,6,0,12,0.01
2013-6-17,83,73,66,74,68,65,99,86,64,30.14,30.00,8,0,19,0.63
2013-6-18,92,76,65,73,67,59,99,77,41,30.18,30.07,2,0,7,0.00
2013-6-19,88,77,63,71,67,62,99,75,48,30.18,30.07,6,0,11,0.00
2013-6-20,93,82,72,77,72,69,90,73,56,30.16,30.05,10,1,19,0.00
2013-6-21,94,84,76,75,71,68,87,67,46,30.17,30.09,8,1,21,0.00
2013-6-22,93,83,76,73,69,64,83,64,42,30.15,30.02,8,1,17,0.00
2013-6-23,93,84,76,73,70,66,87,66,45,30.08,30.00,11,1,20,0.00
2013-6-24,93,83,75,72,70,64,89,67,43,30.15,30.02,9,1,21,0.00
2013-6-25,92,83,77,74,72,70,84,70,54,30.08,29.93,11,1,21,0.00
2013-6-26,98,86,78,78,73,68,85,66,50,30.06,29.94,6,0,14,0.00
2013-6-27,104,88,75,79,74,64,96,66,43,30.12,29.99,12,0,24,0.00
2013-6-28,100,85,72,74,68,63,88,59,34,30.13,29.96,4,0,9,0.00
2013-6-29,93,79,64,66,60,54,96,56,31,30.09,29.96,6,0,15,0.00
2013-6-30,86,74,59,62,57,54,96,60,37,30.14,30.02,7,0,14,0.00
2013-7-1,88,73,59,63,56,47,96,59,31,30.22,30.13,4,0,13,0.00
2013-7-2,89,72,56,61,55,49,96,59,30,30.25,30.16,2,0,9,0.00
2013-7-3,92,72,54,65,54,46,99,59,23,30.24,30.12,3,0,8,0.00
2013-7-4,98,78,60,66,60,55,90,58,28,30.18,30.06,3,0,9,0.00
2013-7-5,92,79,65,67,63,56,89,59,32,30.15,30.03,4,0,10,0.00
2013-7-6,92,81,72,68,65,61,69,58,44,30.11,30.05,5,0,13,0.00
2013-7-7,97,85,76,71,67,63,74,56,41,30.16,30.08,5,0,14,0.00
2013-7-8,97,85,74,76,70,66,82,63,43,30.22,30.13,4,0,12,0.00
2013-7-9,100,88,77,74,71,68,83,59,41,30.19,30.07,8,0,19,0.00
2013-7-10,105,87,74,74,70,66,90,58,35,30.13,30.04,2,0,8,0.00
2013-7-11,106,84,74,79,74,69,99,75,35,30.13,30.03,7,0,18,0.24
2013-7-12,100,85,72,77,73,69,99,69,44,30.15,30.07,3,0,8,0.00
2013-7-13,100,86,76,72,68,62,84,58,36,30.17,30.05,4,0,14,0.00
2013-7-14,92,76,66,72,67,59,99,78,42,30.18,30.04,8,0,15,0.61
2013-7-15,77,69,64,71,67,63,99,95,79,30.31,30.17,8,0,16,0.78
2013-7-16,93,79,68,76,71,66,99,79,46,30.38,30.29,4,0,10,0.01
2013-7-17,94,82,71,75,72,66,99,76,46,30.43,30.32,4,0,8,0.00
2013-7-18,98,83,70,81,72,67,99,73,40,30.34,30.16,5,0,14,0.00
2013-7-19,99,85,73,75,72,67,96,68,40,30.18,30.05,8,0,11,0.07
2013-7-20,98,84,71,75,71,68,94,67,43,30.10,29.96,7,0,11,0.00
2013-7-21,92,80,71,79,73,70,99,83,59,30.08,29.94,4,0,10,0.24
2013-7-22,98,87,76,77,73,71,87,66,45,30.05,29.94,5,0,14,0.00
2013-7-23,102,89,70,77,73,67,95,61,42,30.07,29.92,19,0,34,0.21
2013-7-24,92,77,68,75,71,68,99,82,52,30.16,29.98,16,0,30,0.89
2013-7-25,90,78,70,75,72,69,99,83,58,30.23,30.13,3,0,6,0.00
2013-7-26,83,76,67,75,72,67,99,89,68,30.18,30.06,16,0,24,0.43
2013-7-27,89,74,64,70,66,61,99,78,44,30.21,30.10,1,0,6,0.00
2013-7-28,90,76,66,74,67,63,95,75,56,30.16,30.08,2,0,7,0.00
2013-7-29,91,80,71,76,72,68,95,79,57,30.14,30.03,8,0,15,0.04
2013-7-30,96,80,70,79,74,69,99,83,49,30.86,30.09,3,0,8,1.48
2013-7-31,94,83,75,79,75,72,99,80,53,30.22,30.14,3,0,8,0.00
2013-8-2,96,85,77,80,75,70,88,73,55,30.10,29.96,4,0,10,0.00
2013-8-3,90,82,78,78,74,70,92,76,59,30.19,30.00,5,0,12,0.00
2013-8-4,91,82,76,81,77,73,98,83,65,30.22,30.08,1,0,4,0.00
2013-8-5,100,87,76,76,75,72,96,70,44,30.11,29.94,2,0,8,0.00
2013-8-6,100,89,74,75,72,68,92,59,42,30.01,29.92,4,0,9,0.00
2013-8-7,97,87,77,79,74,70,84,66,50,30.03,29.94,5,0,10,0.00
2013-8-8,87,80,70,79,74,69,98,84,69,30.09,29.98,5,0,11,0.15
2013-8-9,88,77,70,77,73,69,99,87,65,30.20,30.03,7,0,14,0.93
2013-8-10,88,74,68,74,70,66,99,87,61,30.26,30.19,1,0,5,0.00
2013-8-11,96,80,69,78,72,69,99,81,46,30.24,30.14,0,0,1,0.00
2013-8-12,88,78,74,77,74,71,99,88,66,30.21,30.08,4,0,9,0.02
2013-8-13,86,74,70,76,71,68,99,91,69,30.20,30.09,2,0,10,0.37
2013-8-14,88,74,64,72,66,62,99,78,46,30.27,30.17,2,0,10,0.00
2013-8-15,89,73,63,69,64,61,98,77,47,30.25,30.12,11,0,21,0.54
2013-8-16,86,72,62,70,65,62,99,81,51,30.24,30.11,2,0,11,0.27
2013-8-17,85,71,60,67,63,59,99,78,46,30.29,30.19,3,0,8,0.00
2013-8-18,89,72,59,71,64,58,99,77,44,30.28,30.17,1,0,4,0.00
2013-8-19,91,75,63,70,66,62,99,77,47,30.25,30.13,6,0,13,0.00
2013-8-20,94,78,64,70,67,63,98,71,42,30.22,30.12,2,0,8,0.00
2013-8-21,95,80,65,71,67,64,99,69,40,30.23,30.15,2,0,9,0.00
2013-8-22,97,82,69,73,70,67,95,68,44,30.24,30.13,2,0,8,0.00
2013-8-23,97,82,72,75,71,67,92,69,43,30.20,30.10,5,0,9,0.00
2013-8-24,97,81,68,77,72,68,99,76,44,30.26,30.16,4,0,8,0.00
2013-8-25,96,82,69,76,72,68,99,74,46,30.32,30.24,4,0,11,0.00
2013-8-26,94,83,70,73,71,67,95,69,47,30.34,30.22,4,0,11,0.00
2013-8-27,92,80,68,73,69,65,94,69,50,30.26,30.15,10,0,13,0.00
2013-8-28,95,82,69,75,71,68,99,74,48,30.22,30.14,5,0,16,0.00
2013-8-29,100,86,73,74,71,66,93,63,35,30.21,30.11,6,0,11,0.00
2013-8-30,102,88,78,72,70,66,78,57,35,30.14,30.01,7,0,13,0.00
2013-8-31,103,89,78,75,70,66,71,55,37,30.04,29.93,8,0,13,0.00
2013-9-1,96,84,75,76,71,66,88,67,46,30.06,29.94,5,0,12,0.00
2013-9-2,92,79,67,74,65,58,99,66,35,30.18,30.05,8,0,13,0.00
2013-9-3,95,75,62,68,62,56,99,68,33,30.21,30.11,5,0,10,0.00
2013-9-4,98,77,60,71,64,59,99,68,35,30.27,30.17,3,0,8,0.00
2013-9-5,102,80,65,68,65,60,98,64,33,30.31,30.19,4,0,10,0.00
2013-9-6,99,82,67,68,65,62,86,60,34,30.26,30.12,6,0,10,0.00
2013-9-7,102,86,72,70,66,62,82,54,31,30.17,30.05,5,0,10,0.00
2013-9-8,101,85,73,70,67,63,83,58,32,30.11,30.01,10,0,15,0.00
2013-9-9,98,84,71,69,64,62,75,53,34,30.14,30.05,11,1,22,0.00
2013-9-10,98,83,74,69,64,59,75,55,33,30.25,30.10,10,1,17,0.00
2013-9-11,100,82,66,68,65,62,96,60,31,30.29,30.16,7,0,12,0.00
2013-9-12,99,78,69,72,69,65,98,77,36,30.24,30.15,13,0,17,0.97
2013-9-13,89,76,69,71,62,53,99,66,41,30.22,30.11,6,0,11,0.00
2013-9-14,77,66,62,61,56,55,85,71,55,30.20,30.12,5,0,9,0.00
2013-9-15,91,79,67,71,63,54,75,59,44,30.17,30.10,8,0,12,0.00
2013-9-16,91,78,71,72,69,64,96,75,46,30.32,30.15,7,0,14,0.01
2013-9-17,87,74,69,72,69,67,99,86,58,30.27,30.10,11,0,20,0.04
2013-9-18,95,81,71,73,70,66,94,72,46,30.14,30.01,12,2,21,0.01
2013-9-19,93,78,70,77,71,66,97,81,51,30.12,29.99,12,1,20,0.27
2013-9-20,72,67,58,70,64,57,99,89,62,30.15,30.08,10,1,18,0.51
2013-9-21,82,65,52,59,54,49,99,73,36,30.18,30.05,2,0,7,0.00
2013-9-22,85,65,50,60,52,45,99,68,31,30.11,29.97,4,0,8,0.00
2013-9-23,83,69,56,59,55,51,91,62,35,30.03,29.90,11,1,15,0.00
2013-9-24,84,70,59,59,56,54,92,65,39,30.05,29.99,13,1,18,0.00
2013-9-25,93,71,52,63,58,51,99,68,29,30.06,29.93,5,0,7,0.00
2013-9-26,94,78,64,64,60,57,85,57,34,30.03,29.93,11,2,19,0.00
2013-9-27,91,78,68,66,62,55,84,58,31,30.10,29.97,14,2,19,0.00
2013-9-28,78,68,53,70,62,52,99,85,64,30.23,29.98,11,2,17,0.98
2013-9-29,80,61,48,63,53,47,99,81,41,30.23,30.07,4,0,9,0.01
2013-9-30,85,64,48,67,55,48,99,77,34,30.08,29.95,4,0,8,0.00
2013-10-1,89,75,66,73,67,58,99,78,45,30.09,29.98,9,0,14,0.00
2013-10-2,87,77,70,73,70,68,98,81,57,30.13,30.00,11,1,18,0.00
2013-10-3,90,78,70,74,70,67,97,78,51,30.04,29.89,14,3,24,0.00
2013-10-4,88,79,73,72,70,66,93,75,53,30.02,29.92,12,2,24,0.00
2013-10-5,77,58,47,70,48,37,99,74,38,30.25,30.01,14,1,21,0.74
2013-10-6,70,56,46,46,42,10,94,62,10,30.19,30.13,11,1,18,0.00
2013-10-7,82,57,41,48,41,30,99,63,21,30.31,30.17,4,0,8,0.00
2013-10-8,80,62,46,55,50,44,99,67,38,30.26,30.14,10,2,15,0.00
2013-10-9,82,66,55,58,54,50,86,67,43,30.21,30.12,5,1,18,0.00
2013-10-10,82,69,58,62,58,54,88,68,47,30.19,30.00,11,1,17,0.00
2013-10-11,85,72,62,69,65,58,95,78,58,30.01,29.91,14,3,22,0.00
2013-10-12,72,66,60,70,58,51,98,77,63,30.28,29.99,7,0,13,0.00
2013-10-13,76,68,61,67,58,51,83,70,64,30.40,30.28,4,0,9,0.00
2013-10-14,67,62,58,64,59,55,99,89,73,30.32,30.06,9,1,12,0.94
2013-10-15,68,58,53,68,54,47,99,85,64,30.22,30.01,11,2,15,0.21
2013-10-16,64,52,42,48,44,41,99,76,47,30.27,30.17,5,0,12,0.00
2013-10-17,71,52,38,51,44,38,99,80,40,30.20,30.07,0,0,2,0.01
2013-10-18,55,47,40,48,44,39,99,91,73,30.27,30.11,4,0,8,0.18
2013-10-19,68,50,32,44,37,31,99,69,27,30.26,30.11,2,0,11,0.01
2013-10-20,73,59,43,46,41,32,87,55,26,30.12,29.95,13,1,23,0.00
2013-10-21,62,52,38,50,43,35,99,75,42,30.23,30.05,9,0,15,0.00
2013-10-22,75,54,37,47,43,36,99,70,32,30.22,30.10,10,0,17,0.00
2013-10-23,71,54,38,49,44,38,99,73,38,30.29,30.11,6,0,13,0.00
2013-10-24,62,49,41,48,39,34,99,72,40,30.50,30.18,14,2,17,0.00
2013-10-25,61,47,33,42,36,32,96,68,38,30.58,30.33,7,0,14,0.00
2013-10-26,74,56,49,60,50,41,99,82,58,30.33,30.20,5,0,13,0.05
2013-10-27,74,54,37,54,39,17,99,66,14,30.25,30.09,2,0,8,0.00
2013-10-28,73,62,51,60,57,51,99,86,60,30.25,30.12,9,1,13,0.00
2013-10-29,76,70,63,69,66,60,96,87,78,30.18,30.04,12,2,21,0.06
2013-10-30,72,68,64,68,66,63,99,94,87,30.80,29.87,17,2,27,0.78
2013-10-31,69,62,50,66,55,44,99,81,48,29.93,29.69,14,1,26,0.20
2013-11-1,73,56,42,48,43,39,99,66,32,30.18,29.91,9,0,18,0.00
2013-11-2,64,49,38,43,36,25,94,65,24,30.40,30.17,11,0,23,0.00
2013-11-3,65,53,39,43,38,34,87,58,37,30.32,30.06,13,2,21,0.00
2013-11-4,66,58,52,57,51,43,94,78,62,30.21,30.05,9,1,19,0.00
2013-11-5,65,60,56,64,59,56,99,98,94,30.19,30.01,8,1,21,1.04
2013-11-6,56,44,33,56,40,32,99,85,54,30.48,30.06,14,2,21,0.18
2013-11-7,70,47,29,45,34,26,99,70,22,30.56,30.42,1,0,6,0.00
2013-11-8,70,55,40,41,36,25,85,52,23,30.43,30.14,14,2,26,0.00
2013-11-9,76,58,48,48,44,39,94,62,29,30.38,30.16,6,0,13,0.00
2013-11-10,72,56,43,51,47,42,99,75,42,30.48,30.36,2,0,5,0.00
2013-11-11,74,58,43,57,50,38,99,76,51,30.56,30.27,21,1,25,0.00
2013-11-12,43,34,23,38,18,8,83,56,27,30.88,30.56,13,2,24,0.00
2013-11-13,54,36,19,27,19,14,94,55,22,30.79,30.40,8,0,14,0.00
2013-11-14,58,46,35,36,26,20,67,48,26,30.41,30.10,11,2,22,0.00
2013-11-15,64,53,43,54,47,36,98,81,60,30.12,29.91,11,1,17,0.15
2013-11-16,76,66,55,65,60,54,96,82,60,29.91,29.67,17,5,29,0.06
2013-11-17,75,66,44,65,39,14,88,46,13,30.23,29.66,14,2,24,0.00
2013-11-18,67,51,38,39,28,17,76,45,15,30.38,30.22,7,0,11,0.00
2013-11-19,59,54,49,35,29,23,54,39,26,30.32,30.10,13,1,17,0.00
2013-11-20,60,56,49,47,38,29,65,51,39,30.12,29.96,16,2,26,0.01
2013-11-21,60,50,33,55,47,31,99,91,58,30.47,30.04,13,1,22,0.05
2013-11-22,34,31,30,32,28,24,99,88,72,30.64,30.46,12,2,21,0.06
2013-11-23,41,34,27,28,20,4,89,59,24,30.77,30.61,11,1,20,0.00
2013-11-24,31,27,23,17,13,10,63,56,48,30.77,30.43,6,0,13,0.00
2013-11-25,36,33,30,32,27,16,95,78,56,30.44,30.28,2,0,7,0.00
2013-11-26,50,38,28,31,25,11,94,63,37,30.49,30.26,12,2,24,0.00
2013-11-27,46,30,18,12,8,-1,67,41,21,30.56,30.38,8,0,15,0.00
2013-11-28,62,43,30,30,22,11,60,44,26,30.52,30.34,8,0,14,0.00
2013-11-29,60,44,24,32,25,15,95,52,20,30.57,30.38,8,0,15,0.00
2013-11-30,67,50,43,48,42,32,99,74,50,30.38,30.20,10,0,15,0.00
2013-12-1,55,48,39,52,48,39,99,98,91,30.22,30.00,1,0,3,0.00
2013-12-2,64,51,45,51,48,44,99,89,51,29.99,29.76,2,0,4,0.00
2013-12-3,70,52,44,57,48,44,99,90,48,29.76,29.61,2,0,10,0.00
2013-12-4,42,36,29,39,30,21,93,78,70,30.14,29.85,10,1,18,0.01
2013-12-5,30,24,20,21,13,8,84,63,48,30.40,30.13,11,2,21,0.00
2013-12-6,24,19,14,16,9,-3,87,66,44,30.66,30.34,8,1,18,0.00
2013-12-7,23,16,8,11,2,-4,62,54,45,30.73,30.37,5,0,14,0.00
2013-12-8,29,25,21,27,21,11,96,85,62,30.37,30.09,5,0,11,0.00
2013-12-9,26,23,19,22,15,10,91,71,53,30.50,30.28,6,0,13,0.00
2013-12-10,42,25,9,21,14,4,86,63,35,30.52,30.32,6,0,16,0.04
2013-12-11,40,28,18,27,18,12,88,65,46,30.70,30.34,14,1,18,0.00
2013-12-12,44,30,14,28,19,7,82,64,48,30.69,30.30,9,0,17,0.00
2013-12-13,46,39,36,39,35,28,99,85,65,30.30,29.91,11,1,25,0.34
2013-12-14,40,34,23,39,29,18,99,81,60,30.37,29.94,13,2,23,0.00
2013-12-15,63,41,20,34,25,17,89,59,22,30.37,30.21,6,0,14,0.00
2013-12-16,72,51,37,35,29,19,75,49,14,30.25,30.14,4,0,8,0.00
2013-12-17,64,47,34,36,30,21,82,56,21,30.41,30.23,7,0,12,0.00
2013-12-18,70,54,34,46,35,25,78,51,29,30.36,29.99,13,2,22,0.00
2013-12-19,64,59,53,58,52,45,88,79,65,29.99,29.77,13,4,27,0.00
2013-12-20,61,36,28,58,32,21,99,84,68,30.08,29.77,13,1,19,0.05
2013-12-21,32,30,28,31,30,27,99,99,95,29.95,29.62,0,0,0,0.00
2013-12-23,29,23,17,24,20,14,96,87,81,30.69,30.58,0,0,0,0.00
2013-12-24,40,27,16,38,24,13,99,88,81,30.67,30.28,2,0,8,0.04
2013-12-25,40,31,25,37,30,25,99,96,84,30.50,30.35,8,0,11,0.18
2013-12-26,55,37,20,40,29,19,99,77,42,30.50,30.38,5,0,9,0.15
2013-12-27,64,45,32,33,28,24,75,55,24,30.50,30.38,8,0,13,0.00
2013-12-28,62,47,32,39,34,27,88,63,34,30.38,30.02,8,0,17,0.00
2013-12-29,46,31,21,40,21,-2,97,66,36,30.40,30.03,16,2,24,0.00
2013-12-30,44,26,12,17,7,-2,67,47,23,30.46,30.32,3,0,8,0.00
2013-12-31,59,40,22,27,20,11,72,48,20,30.45,30.22,13,1,21,0.00
2014-1-1,56,39,18,37,27,11,81,61,47,30.37,29.99,17,2,27,0.00
2014-1-2,37,23,12,16,10,3,74,59,43,30.56,30.37,12,1,21,0.00